Home   Weather   Vallejo   Past weeks

Flag for USA Past Weather in Vallejo, California, USA — Yesterday and Last 2 Weeks

Now
59 °F

Overcast.


Feels Like: 58 °F
Forecast: 57 / 65 °F
Wind: 7 mph from Southwest

Location: Napa County Airport

Current Time: Apr 26, 2017 at 9:00:01 am

Latest Report: Apr 26, 2017 at 7:54 am


Visibility: 10 mi

Pressure: 30.02 "Hg

Humidity: 90%

Dew Point: 56 °F

Location of VallejoLocation

Past Weather in Vallejo — Graph

°F

Vallejo Temperature Yesterday

Maximum temperature yesterday: 69 °F (at 1:54 pm)
Minimum temperature yesterday: 52 °F (at 12:54 am)
Average temperature yesterday: 59 °F

High & Low Weather Summary for the Past Weeks

 TemperatureHumidityPressure
High76 °F (Apr 21, 3:54 pm)93% (Apr 16, 11:54 pm)30.30 "Hg (Apr 16, 11:54 pm)
Low39 °F (Apr 14, 5:54 am)39% (Apr 14, 2:54 pm)29.85 "Hg (Apr 12, 11:54 pm)
Average57 °F76%30.04 "Hg
* Reported Apr 11 7:54 am — Apr 26 7:54 am, Vallejo, Weather by CustomWeather, © 2017

Note: Actual official high and low records may vary slightly from our data, if they occured in-between our weather recording intervals... More about our weather records

Advertising

Vallejo Weather History for the Previous 24 Hours

Scroll right to see more
 ConditionsComfort  
Time TempWeatherWind HumidityBarometerVisibility
7:54 am
Wed, Apr 26
59 °FOvercast.7 mph90%30.02 "Hg10 mi
7:38 am59 °FOvercast.5 mph90%30.05 "Hg10 mi
7:13 am59 °FMostly cloudy.7 mph90%30.04 "Hg10 mi
7:04 am59 °FMore clouds than sun.6 mph90%30.04 "Hg10 mi
6:54 am59 °FMostly cloudy.7 mph90%30.02 "Hg8 mi
5:54 am59 °FLow clouds.9 mph87%30.00 "Hg10 mi
4:54 am59 °FLow clouds.6 mph87%30.01 "Hg10 mi
3:54 am58 °FLow clouds.8 mph87%30.01 "Hg10 mi
2:54 am58 °FLow clouds.7 mph87%30.02 "Hg10 mi
2:22 am58 °FLow clouds.12 mph87%30.05 "Hg10 mi
1:54 am58 °FMostly cloudy.14 mph84%30.03 "Hg10 mi
12:54 am58 °FMostly cloudy.14 mph84%30.06 "Hg10 mi
11:54 pm
Tue, Apr 25
58 °FMostly cloudy.10 mph81%30.06 "Hg10 mi
10:54 pm58 °FPassing clouds.9 mph81%30.06 "Hg10 mi
9:54 pm58 °FPassing clouds.10 mph81%30.06 "Hg10 mi
8:54 pm59 °FClear.18 mph78%30.03 "Hg10 mi
7:54 pm60 °FPassing clouds.17 mph75%30.04 "Hg10 mi
6:54 pm63 °FBroken clouds.17 mph68%30.03 "Hg10 mi
5:54 pm64 °FBroken clouds.18 mph70%30.01 "Hg10 mi
4:54 pm66 °FScattered clouds.18 mph63%30.01 "Hg10 mi
3:54 pm66 °FScattered clouds.18 mph63%30.02 "Hg10 mi
2:54 pm68 °FScattered clouds.16 mph57%30.03 "Hg10 mi
1:54 pm69 °FScattered clouds.13 mph55%30.04 "Hg10 mi
12:54 pm65 °FPartly sunny.8 mph59%30.05 "Hg10 mi
11:54 am64 °FPartly sunny.10 mph56%30.07 "Hg10 mi
10:54 am60 °FPartly sunny.7 mph62%30.07 "Hg10 mi
9:54 am58 °FPartly sunny.No wind62%30.07 "Hg10 mi
Weather by CustomWeather, © 2017

See weather overviewHow to use our weather pages